{"data":{"norad_id":37179,"epoch":"2026-09-20T04:21:02.787264Z","epoch_age_seconds":49555,"freshness":"FRESH","line1":"1 37179U 10051A   26263.18128226  .00002970  00000+0  14534-3 0  9990","line2":"2 37179  97.8255 289.6951 0016374 256.4532 103.4877 15.18935508871363","mean_motion":15.18935508,"eccentricity":0.0016374,"inclination_deg":97.8255,"raan_deg":289.6951,"arg_perigee_deg":256.4532,"mean_anomaly_deg":103.4877,"bstar":0.00014534,"rev_number":87136,"period_min":94.803235056113,"perigee_km":497.77940835663,"apogee_km":520.33358962713,"semimajor_km":6887.1934989919,"source":"CELESTRAK","updated_at":"2026-09-20T09:00:13.792312Z"}}